TimeCEST,TemperatureF,Dew PointF,Humidity,Sea Level PressureIn,VisibilityMPH,Wind Direction,Wind SpeedMPH,Gust SpeedMPH,PrecipitationIn,Events,Conditions,WindDirDegrees,DateUTC
2:00 AM,75,60,50,30.00,11,SW,4.6,,,,,230,2013-07-22 00:00:00
6:00 AM,68.0,60.8,78,30.06,-9999.0,Variable,1.2,-,N/A,,Clear,0,2013-07-22 04:00:00
6:30 AM,66.2,60.8,83,30.06,-9999.0,Calm,Calm,-,N/A,,Clear,0,2013-07-22 04:30:00
7:00 AM,66.2,60.8,83,30.06,-9999.0,Calm,Calm,-,N/A,,Clear,0,2013-07-22 05:00:00
7:30 AM,66.2,60.8,83,30.06,-9999.0,Calm,Calm,-,N/A,,Clear,0,2013-07-22 05:30:00
8:00 AM,67,59,68,30.02,6,South,1.2,,,,Clear,190,2013-07-22 06:00:00
8:00 AM,68.0,60.8,78,30.06,-9999.0,Variable,1.2,-,N/A,,Clear,0,2013-07-22 06:00:00
8:30 AM,69.8,60.8,73,30.06,-9999.0,Variable,1.2,-,N/A,,Clear,0,2013-07-22 06:30:00
9:00 AM,71.6,62.6,73,30.09,-9999.0,Variable,1.2,-,N/A,,Clear,0,2013-07-22 07:00:00
9:30 AM,73.4,62.6,69,30.09,-9999.0,Variable,1.2,-,N/A,,Clear,0,2013-07-22 07:30:00
10:00 AM,77.0,62.6,61,30.09,-9999.0,Calm,Calm,-,N/A,,Clear,0,2013-07-22 08:00:00
10:30 AM,77.0,62.6,61,30.09,-9999.0,Variable,1.2,-,N/A,,Clear,0,2013-07-22 08:30:00
11:00 AM,80.6,64.4,58,30.06,-9999.0,Variable,2.3,-,N/A,,Clear,0,2013-07-22 09:00:00
11:30 AM,82.4,62.6,51,30.06,-9999.0,NNE,3.5,-,N/A,,Clear,20,2013-07-22 09:30:00
12:00 PM,84.2,59.0,42,30.06,-9999.0,NNE,3.5,-,N/A,,Clear,20,2013-07-22 10:00:00
12:30 PM,84.2,59.0,42,30.06,6.2,NW,5.8,-,N/A,,Partly Cloudy,320,2013-07-22 10:30:00
1:00 PM,87.8,59.0,38,30.06,6.2,NE,4.6,-,N/A,,Partly Cloudy,50,2013-07-22 11:00:00
1:30 PM,87.8,57.2,35,30.06,6.2,North,3.5,15.0,N/A,,Partly Cloudy,360,2013-07-22 11:30:00
2:00 PM,89,56,23,29.92,12,NNE,3.5,,,,Scattered Clouds,20,2013-07-22 12:00:00
2:00 PM,89.6,57.2,33,30.06,6.2,Variable,3.5,-,N/A,,Partly Cloudy,0,2013-07-22 12:00:00
2:30 PM,89.6,57.2,33,30.04,6.2,NNE,3.5,-,N/A,,Partly Cloudy,20,2013-07-22 12:30:00
3:00 PM,91.4,57.2,31,30.04,6.2,North,4.6,-,N/A,,Partly Cloudy,360,2013-07-22 13:00:00
3:30 PM,93.2,57.2,30,30.04,6.2,Variable,3.5,-,N/A,,Partly Cloudy,0,2013-07-22 13:30:00
4:00 PM,95.0,59.0,30,30.01,6.2,North,3.5,-,N/A,,Partly Cloudy,360,2013-07-22 14:00:00
4:30 PM,95.0,57.2,28,30.01,6.2,Variable,3.5,-,N/A,,Partly Cloudy,0,2013-07-22 14:30:00
5:00 PM,95.0,55.4,26,30.01,6.2,SSW,4.6,-,N/A,,Partly Cloudy,210,2013-07-22 15:00:00
5:30 PM,93.2,57.2,30,30.01,6.2,Variable,4.6,-,N/A,,Partly Cloudy,0,2013-07-22 15:30:00
6:00 PM,93.2,55.4,28,29.98,6.2,Variable,3.5,-,N/A,,Partly Cloudy,0,2013-07-22 16:00:00
6:30 PM,93.2,59.0,32,29.98,6.2,Variable,1.2,-,N/A,,Partly Cloudy,0,2013-07-22 16:30:00
7:00 PM,93.2,57.2,30,29.98,6.2,Variable,6.9,-,N/A,,Partly Cloudy,0,2013-07-22 17:00:00
7:30 PM,93.2,57.2,30,29.98,6.2,West,9.2,-,N/A,,Partly Cloudy,260,2013-07-22 17:30:00
8:00 PM,91,57,22,29.84,12,West,9.2,,,,Scattered Clouds,280,2013-07-22 18:00:00
8:00 PM,91.4,57.2,31,29.98,6.2,West,9.2,-,N/A,,Partly Cloudy,280,2013-07-22 18:00:00
8:30 PM,89.6,57.2,33,30.01,6.2,West,10.4,-,N/A,,Partly Cloudy,280,2013-07-22 18:30:00
9:00 PM,87.8,57.2,35,30.01,6.2,WSW,8.1,-,N/A,,Partly Cloudy,240,2013-07-22 19:00:00
9:30 PM,84.2,57.2,40,30.01,6.2,SW,6.9,-,N/A,,Partly Cloudy,220,2013-07-22 19:30:00
10:00 PM,82.4,57.2,42,30.01,6.2,SW,6.9,-,N/A,,Partly Cloudy,220,2013-07-22 20:00:00
10:30 PM,80.6,57.2,45,30.04,6.2,Variable,2.3,-,N/A,,Partly Cloudy,0,2013-07-22 20:30:00
11:00 PM,78.8,57.2,47,30.04,6.2,Calm,Calm,-,N/A,,Partly Cloudy,0,2013-07-22 21:00:00